Weather Roundup
Issued by NWS

Home | Current Version | Previous Version | Graphics & Text | Print | Product List | Glossary Off
Versions: 1 2 3 4 5 6 7 8 9 10 11 12 13 14 15 16 17 18 19 20 21 22 23 24 25 26 27 28 29 30 31 32 33 34 35 36 37 38 39 40 41 42 43 44 45 46 47 48 49 50

000
NZUS93 KARX 200159
HRRWXR

CURRENT HOURLY OBSERVATIONS ACROSS
MUCH OF THE UPPER MISSISSIPPI VALLEY
NATIONAL WEATHER SERVICE LA CROSSE WI
900 PM CDT SUN OCT 19 2014


...SOUTHEAST MINNESOTA...


CITY           SKY/WX    TMP DP  RH WIND       PRES   REMARKS
ROCHESTER      CLEAR     57  45  64 W12       29.83S
ROCHESTER/MAYO FAIR      59  42  53 W14G20    29.81S
WINONA         CLEAR     55  45  67 CALM      29.79S
AUSTIN         CLEAR     55  46  71 W7        29.84R
ALBERT LEA     CLEAR     57  45  62 W6        29.85R
DODGE CENTER   PTCLDY    52  45  76 W8        29.83R
PRESTON        CLEAR     55  45  67 SW9       29.82F
OWATONNA       CLEAR     57  43  58 W8        29.83S
FARIBAULT      CLEAR     55  45  67 W6        29.83S
$$

...ELSEWHERE IN MINNESOTA...


CITY           SKY/WX    TMP DP  RH WIND       PRES   REMARKS
MINNEAPOLIS    CLEAR     59  43  55 NW10      29.81R
INTNL FALLS    MOCLDY    44  39  82 W5        29.81R
DULUTH         MOCLDY    55  41  59 NW12      29.78R
RED WING       CLEAR     50  45  81 NW3       29.78S
REDWOOD FALLS  CLEAR     60  40  47 NW10      29.87R
MANKATO        CLEAR     59  39  47 NW9       29.84F
WORTHINGTON    CLEAR     55  37  50 NW8       29.92S
FAIRMONT       CLEAR     55  39  54 NW8       29.87S
$$

...SOUTHWEST WISCONSIN...


CITY           SKY/WX    TMP DP  RH WIND       PRES   REMARKS
LA CROSSE      CLEAR     57  46  66 S9        29.79F
PRAIRIE DU CHI CLEAR     56  42  60 CALM      29.85F
BOSCOBEL       CLEAR     54  43  66 SW6       29.85F
LONE ROCK      NOT AVBL
PLATTEVILLE    PTCLDY    49  43  78 CALM      29.90F
FORT MC COY    CLEAR     54  43  67 SW3       29.82F
VIROQUA        FAIR      54  45  71 SW10      29.83F
WIS DELLS      PTCLDY    53  41  65 SW12G17   29.83F
$$

...ELSEWHERE IN WISCONSIN...


CITY           SKY/WX    TMP DP  RH WIND       PRES   REMARKS
MILWAUKEE      MOCLDY    51  41  68 SW12      29.89F
MADISON        MOCLDY    53  42  66 S7        29.87F
GREEN BAY      MOCLDY    51  44  77 S7        29.81F
EAU CLAIRE     NOT AVBL
BLACK RVR FLS  FAIR      49  43  78 CALM      29.79F
MEDFORD        CLEAR     41  40  95 CALM      29.78F
WAUSAU         PTCLDY    45  42  89 CALM      29.77F
WIS RAPIDS     PTCLDY    50  44  80 S6        29.80F
MARSHFIELD     PTCLDY    50  43  77 CALM      29.78F
RICE LAKE      CLEAR     46  42  86 CALM      29.78F
$$

...NORTHEAST IOWA...


CITY           SKY/WX    TMP DP  RH WIND       PRES   REMARKS
DECORAH        CLEAR     55  46  71 SW9G16    29.83F
MASON CITY     CLEAR     57  47  69 SW12      29.87S
CHARLES CITY   CLEAR     54  45  71 S9        29.86F
OELWEIN        CLEAR     52  46  82 SW9       29.88F
$$

...ELSEWHERE IN IOWA...


CITY           SKY/WX    TMP DP  RH WIND       PRES   REMARKS
DES MOINES     CLEAR     58  47  66 SW9       29.92F
IOWA CITY      CLEAR     53  43  68 SW6       29.94S
FORT DODGE     CLEAR     54  45  71 SW5       29.90S
$$

...NORTHERN ILLINOIS...


CITY           SKY/WX    TMP DP  RH WIND       PRES   REMARKS
CHICAGO-OHARE  MOCLDY    52  42  69 S10       29.93F
CHICAGO-MIDWAY CLOUDY    54  43  66 S14       29.95F
MOLINE         PTCLDY    56  43  61 SW9       29.93S
ROCKFORD       MOCLDY    52  42  69 S12       29.94F
PEORIA         CLOUDY    56  44  64 S10       29.98F
$$

NOTE: "FAIR" INDICATES FEW OR NO CLOUDS BELOW 12,000 FEET WITH NO
SIGNIFICANT WEATHER AND/OR OBSTRUCTIONS TO VISIBILITY. WIND
SPEEDS ARE IN MILES-PER-HOUR.



USA.gov is the U.S. government's official web portal to all federal, state and local government web resources and services.